Starlink 31454

operational
NORAD ID: 59014 Int'l Des: 2024-036 Owner: SPXS Country: US Constellation: starlink
LEOCIRCULAR

About Starlink 31454

Description loading...

Live Position

Loading 3D Globe...

Upcoming Passes

Altitude History

Altitude vs Time

uPlot chart will show altitude changes over time

Two-Line Element Set

1 59014U 24036S 26035.80008705 .00001320 00000-0 56704-4 0 9990
2 59014 53.1593 231.1803 0001171 94.7304 265.3830 15.30189169110284
Epoch: Feb 4, 2026 • Age: 17 hours

Current Status

Altitude 478.0 km
Velocity 7.63 km/s
Sub-Earth Point -9.72°S, 103.98°E
Launch Date Feb 23, 2024
Age 1.9 years
Type internet

Technical Details

Classification Payload
Mass 730.00 kg
Dry Mass 700.00 kg
Total Mass 730.00 kg
Length 0.30 m
Diameter 4.10 m
Span 29.00 m
Shape Box + pan
Manufacturer SPXS
Bus Type Starlink V2M
Phase Status In Orbit
Owner/State SPXS/US

Large Constellations

Loading constellations...